NILESAT 201

Last updated on Thu Nov 21 2024 00:02:41 GMT+0000 (Coordinated Universal Time)

1 36830U 10037A 24325.26577118 -.00000056 00000+0 00000+0 0 9994 2 36830 0.0281 175.9970 0005411 52.2563 280.2125 1.00272134 52619
UTC large
Height (km)
Speed (km/s)
/
Latitude / Longitude
Inclination (degrees)
Orbital Period (minutes)
Azimuth
Elevation
Range (km)
Doppler Factor

Next 0 passes for location: London (51.5072 / 0.1276)

Sorry there are no passes over London.